Miscellaneous Local Product
Issued by NWS Hastings, NE

Home | Current Version | Previous Version | Text Only | Print | Product List | Glossary On
Versions: 1 2 3 4 5 6 7 8 9 10 11 12 13 14 15 16 17 18 19 20 21 22 23 24 25 26 27 28 29 30 31 32 33 34 35 36 37 38 39 40 41 42 43 44 45 46 47 48 49 50
000
AXUS43 KGID 251202
MISGRI

GID CWA HOURLY WEATHER ROUNDUP
NATIONAL WEATHER SERVICE HASTINGS NE
600 AM CST SUN JAN 25 2015

NOTE: "FAIR" INDICATES FEW OR NO CLOUDS BELOW 12,000 FEET WITH NO
SIGNIFICANT WEATHER AND/OR OBSTRUCTIONS TO VISIBILITY.

...SOUTH CENTRAL NEBRASKA...

CITY           SKY/WX    TMP DP  RH WIND       PRES   REMARKS
GRAND ISLAND   CLOUDY    38  34  85 N23G35    29.88R WCI  27
HASTINGS       CLOUDY    41  31  67 NW28G39   29.87R
KEARNEY        CLOUDY    41  27  56 N26G37    29.91R
ORD            CLOUDY    38  29  70 NW25G33   29.89R WCI  27
YORK           CLOUDY    36  32  87 N21G29    29.81R WCI  24
AURORA         CLOUDY    38  32  79 N26G33    29.85R WCI  26
LEXINGTON      MOCLDY    40  29  66 N25G33    29.96R WCI  29
HOLDREGE       CLOUDY    40  28  60 NW25G40   29.92R WCI  29
HEBRON         CLOUDY    40  32  71 N22G30    29.83R WCI  31

...NEBRASKA PANHANDLE...

CITY           SKY/WX    TMP DP  RH WIND       PRES   REMARKS
CHADRON        CLEAR     33  26  75 W15       30.06F WCI  23
ALLIANCE       CLEAR     33  25  72 NW18      30.05S WCI  22
SCOTTSBLUFF    CLEAR     35  28  75 W17       30.10R WCI  25
SIDNEY         PTCLDY    33  24  69 NW14      30.09S WCI  23

...WESTERN AND NORTH CENTRAL NEBRASKA...

CITY           SKY/WX    TMP DP  RH WIND       PRES   REMARKS
VALENTINE      CLEAR     36  29  75 NW16G24   29.96S WCI  26
AINSWORTH      CLEAR     35  29  80 NW16G24   29.95R WCI  25
ONEILL         CLOUDY    37  36  98 N14       29.89R WCI  28
BROKEN BOW     PTCLDY    38  29  70 NW29G38   29.92R WCI  26
IMPERIAL       CLEAR     37  22  54 NW18      30.04R WCI  27
NORTH PLATTE   CLEAR     33  26  75 NW13      30.00R WCI  24
MCCOOK         CLEAR     38  26  62 NW23      30.00R WCI  27

...EASTERN NEBRASKA...

CITY           SKY/WX    TMP DP  RH WIND       PRES   REMARKS
NORFOLK        CLOUDY    34  31  88 N24G33    29.84R WCI  21
SO SIOUX CITY  MIX PCPN  35  32  88 N17       29.80R WCI  25
TEKAMAH        LGT RAIN  36  32  85 NW22      29.78R WCI  25
COLUMBUS       CLOUDY    36  27  69 NW21G30   29.84R WCI  24
ALBION         CLOUDY    36  32  86 N17G25    29.86R WCI  25
OMAHA EPPLEY   CLOUDY    36  32  85 N23G33    29.74R WCI  24
OFFUTT AFB     CLOUDY    36  32  87 NW16G25   29.72R WCI  26
MILLARD        CLOUDY    37  32  84 NW18G25   29.74S WCI  26
LINCOLN        CLOUDY    36  30  79 N23G32    29.79R WCI  24
NEBRASKA CITY  DRIZZLE   35  31  86 N23G33    29.71R WCI  23
BEATRICE       CLOUDY    36  32  85 N24G32    29.78R WCI  24
FALLS CITY     LGT RAIN  37  31  78 NW26G36   29.70R WCI  25

...NORTHERN KANSAS...

CITY           SKY/WX    TMP DP  RH WIND       PRES   REMARKS
GOODLAND       PTCLDY    38  24  57 NW25      30.06S WCI  27
HILL CITY      CLEAR     40  27  59 NW21G29   29.99R WCI  30
NORTON         SUNNY     36  27  69 NW14      29.98R WCI  27
PHILLIPSBURG   CLEAR     39  30  70 W17       29.96R WCI  30
SMITH CENTER   MOCLDY    39  28  65 NW24G36   29.91R WCI  28
BELOIT         CLOUDY    45  32  61 NW22G39   29.88R
HAYS           CLEAR     39  25  56 NW21      29.96R WCI  29
RUSSELL        PTCLDY    40  30  67 NW23G31   29.92R WCI  30
CONCORDIA      CLOUDY    42  35  76 NW25G37   29.84R
SALINA         CLOUDY    45  35  68 NW26G40   29.86R
TOPEKA         CLOUDY    44  34  67 NW28G35   29.72R



USA.gov is the U.S. government's official web portal to all federal, state and local government web resources and services.